COMSATBW-2

Last updated on Tue Jul 01 2025 00:02:45 GMT+0000 (Coordinated Universal Time)

1 36582U 10021B 25181.57049218 .00000088 00000+0 00000+0 0 9995 2 36582 0.1064 80.1883 0002066 33.9815 23.3043 1.00274566 55431
UTC large
Height (km)
Speed (km/s)
/
Latitude / Longitude
Inclination (degrees)
Orbital Period (minutes)
Azimuth
Elevation
Range (km)
Doppler Factor

Next 0 passes for location: London (51.5072 / 0.1276)

Sorry there are no passes over London.